This is the latest recevied weather packets stored in our database for station/object EA6AMI-5. If no packets are shown the sender has not sent any weather packets the latest 10 day(s).
| Time | Temp. | Humidity | Pressure | Rain* | Wind** | Luminosity | Snow |
|---|---|---|---|---|---|---|---|
| 1778043244 | 12.22° C | 83% | 1012 hPa | 0 mm | - | 6 W/m² | - |
| 1778042704 | 12.22° C | 83% | 1011.8 hPa | 0 mm | - | 2 W/m² | - |
| 1778042163 | 12.22° C | 82% | 1011.4 hPa | 0 mm | - | 0 W/m² | - |
| 1778041624 | 12.78° C | 83% | 1011.5 hPa | 0 mm | - | 0 W/m² | - |
| 1778041083 | 12.22° C | 86% | 1011.4 hPa | 0 mm | - | 0 W/m² | - |
| 1778040545 | 12.22° C | 84% | 1011.6 hPa | 0 mm | - | 0 W/m² | - |
| 1778040004 | 12.22° C | 84% | 1011.4 hPa | 0 mm | - | 0 W/m² | - |
| 1778039643 | 12.78° C | 84% | 1011.2 hPa | 0 mm | - | 0 W/m² | - |
| 1778039104 | 12.78° C | 86% | 1011.2 hPa | 0 mm | - | 0 W/m² | - |
| 1778038563 | 12.22° C | 86% | 1011.2 hPa | 0 mm | - | 0 W/m² | - |
| 1778038024 | 12.22° C | 86% | 1011.1 hPa | 0 mm | - | 0 W/m² | - |
| 1778037483 | 12.22° C | 86% | 1011.2 hPa | 0 mm | - | 0 W/m² | - |
| 1778036943 | 12.22° C | 85% | 1010.9 hPa | 0 mm | - | 0 W/m² | - |
| 1778036403 | 12.78° C | 84% | 1010.9 hPa | 0 mm | - | 0 W/m² | - |
| 1778036043 | 12.78° C | 83% | 1010.9 hPa | 0 mm | - | 0 W/m² | - |
| 1778035503 | 13.33° C | 84% | 1011 hPa | 0 mm | - | 0 W/m² | - |
| 1778034963 | 12.78° C | 83% | 1011.1 hPa | 0 mm | - | 0 W/m² | - |
| 1778034424 | 13.33° C | 83% | 1011.1 hPa | 0 mm | - | 0 W/m² | - |
| 1778033883 | 13.33° C | 84% | 1010.9 hPa | 0 mm | - | 0 W/m² | - |
| 1778033344 | 13.33° C | 82% | 1011.1 hPa | 0 mm | - | 0 W/m² | - |
| 1778032804 | 13.33° C | 80% | 1011.1 hPa | 0 mm | - | 0 W/m² | - |
| 1778032444 | 13.33° C | 79% | 1011.1 hPa | 0 mm | - | 0 W/m² | - |
| 1778031903 | 14.44° C | 79% | 1011 hPa | 0 mm | - | 0 W/m² | - |
| 1778031363 | 13.89° C | 81% | 1011 hPa | 0 mm | - | 0 W/m² | - |
| 1778030824 | 13.89° C | 81% | 1011.1 hPa | 0 mm | - | 0 W/m² | - |
* Rain latest hour (hover to see other rain measurements)
** Current wind speed in m/s (hover to see current wind gust speed)